#timestamp,LO_Frequency,Hit,StdDev 
1624982415.1,286047001.1,N
1624982435.9,286047000.7,N
1624982455.7,286047000.9,N
1624982475.6,286046999.7,N
1624982495.4,286047002.8,Y
1624982515.2,286047001.2,P
1624982535.1,286046998.3,P
1624982536.0,286046998.3,N
1624982555.8,286047000.7,N
1624982575.7,286047001.2,N
1624982595.5,286047001.0,N
1624982615.3,286046998.6,N
1624982635.2,286046998.5,N
1624982655.9,286046998.3,N
1624982675.7,286046999.4,N
1624982695.6,286046999.0,N
1624982715.4,286046998.3,N
1624982735.2,286046998.5,N
1624982755.1,286046998.5,N
1624982756.0,286046998.5,N
1624982775.8,286047000.0,N
1624982795.7,286047000.5,N
1624982815.5,286046998.7,N
1624982835.3,286047001.2,N
1624982855.2,286047000.0,N
1624982875.0,286047001.2,N
1624982875.9,286047001.2,N
1624982895.7,286046998.7,N
1624982915.6,286046998.4,N
1624982935.4,286047001.2,N
1624982955.3,286046999.1,N
1624982975.1,286046999.2,N
1624982976.0,286046999.2,N
1624982995.8,286047000.7,N
1624983015.7,286046998.3,N
1624983035.5,286046998.6,N
1624983055.3,286047000.6,N
1624983075.2,286047001.2,N
1624983095.0,286046998.1,N
1624983095.9,286046998.1,N
1624983115.8,286047000.7,N
1624983135.6,286047000.5,N
1624983155.4,286047000.6,N
1624983175.3,286047001.0,N
1624983195.1,286047000.5,N
1624983215.8,286046999.8,N
1624983235.7,286047000.1,N
1624983255.5,286046999.8,N
1624983275.4,286046998.1,N
1624983295.2,286046998.1,N
1624983315.0,286047000.7,N
1624983315.9,286047000.7,N
1624983335.8,286047000.4,N
1624983355.6,286047000.7,N
1624983375.4,286047000.1,N
1624983395.3,286047000.2,N
1624983415.1,286046999.9,N
1624983435.9,286046999.9,N
1624983455.7,286047002.7,N
1624983475.5,286047002.2,N
1624983495.4,286046999.8,N
1624983515.2,286047002.2,N
1624983535.1,286047002.0,N
1624983536.0,286047002.0,N
1624983555.8,286047002.7,N
1624983575.6,286047002.4,N
1624983595.5,286047000.0,N
1624983615.3,286047002.4,N
1624983635.2,286047002.0,N
1624983655.9,286047002.5,N
1624983675.7,286047002.2,N
1624983695.6,286047002.6,N
1624983715.4,286046999.7,N
1624983735.2,286047002.8,N
1624983755.1,286047002.7,N
1624983756.0,286047002.7,N
1624983775.8,286047002.2,N
1624983795.7,286047002.4,N
1624983815.5,286047002.7,N
1624983835.3,286047002.8,N
1624983855.2,286047000.1,N
1624983875.0,286046999.8,N
1624983875.9,286046999.8,N
1624983895.7,286047000.6,N
1624983915.6,286046998.7,N
1624983935.4,286046999.4,N
1624983955.3,286046996.6,N
1624983975.1,286046996.6,N
1624983976.0,286046996.6,N
1624983995.8,286046997.0,N
1624984015.7,286046997.8,N
1624984035.5,286046997.6,N
1624984055.3,286046998.0,N
1624984075.2,286046996.8,N
1624984095.0,286046996.6,N
1624984095.9,286046996.6,N
1624984115.8,286046997.7,N
1624984135.6,286046999.4,N
1624984155.4,286046999.6,N
1624984175.3,286046996.8,N
1624984195.1,286046997.0,N
1624984215.9,286046996.9,N
1624984235.7,286046999.1,N
1624984255.5,286046997.3,N
1624984275.4,286046997.3,N
1624984295.2,286046997.2,N
1624984315.0,286046996.7,N
1624984316.0,286046996.7,N
1624984335.8,286046997.4,N
1624984355.6,286046997.2,N
1624984375.5,286046996.0,Y
1624984395.3,286046997.3,P
1624984415.1,286046997.1,P
1624984435.9,286046998.1,P
1624984455.7,286046998.3,Y
1624984475.6,286047000.0,P
1624984495.4,286047002.1,N
1624984515.2,286047002.2,N
1624984535.1,286047002.3,N
1624984536.0,286047002.3,N
1624984555.8,286047002.6,N
1624984575.6,286047001.9,N
1624984595.5,286047001.8,N
1624984615.3,286047001.8,N
1624984635.2,286047003.5,N
1624984655.9,286047003.5,N
1624984675.7,286047004.2,N
1624984695.6,286047004.4,N
1624984715.4,286047003.7,N
1624984735.2,286047004.0,N
1624984755.1,286047001.4,N
1624984756.0,286047001.4,N
1624984775.8,286047003.9,N
1624984795.7,286047003.9,N
1624984815.5,286047003.7,N
1624984835.3,286047001.8,N
1624984855.2,286047004.4,N
1624984875.0,286047004.1,N
1624984875.9,286047004.1,N
1624984895.8,286047005.5,Y
1624984915.6,286047002.0,P
1624984935.4,286047001.9,P
1624984955.3,286047002.5,P
1624984975.1,286047000.1,N
1624984995.9,286047001.0,N
1624985015.7,286046998.5,N
1624985035.5,286047000.5,N
1624985055.4,286047001.2,N
1624985075.2,286046998.4,N
1624985095.0,286046998.2,N
1624985096.0,286046998.2,N
1624985115.8,286046998.5,N
1624985135.6,286046999.5,N
1624985155.5,286046998.5,N
1624985175.3,286046998.2,N
1624985195.1,286047000.6,N
1624985215.9,286047000.8,N
1624985235.7,286046999.7,N
1624985255.6,286047000.5,N
1624985275.4,286047000.0,N
1624985295.2,286047000.2,N
1624985315.1,286047002.4,N
1624985316.0,286047002.4,N
1624985335.8,286047002.6,N
1624985355.7,286047000.8,N
1624985375.5,286046998.2,N
1624985395.3,286046998.5,N
1624985415.2,286046998.2,N
1624985435.0,286046999.9,N
1624985435.9,286046999.9,N
1624985455.7,286047000.8,N
1624985475.6,286047001.2,N
1624985495.4,286047000.5,N
1624985515.3,286047000.9,N
1624985535.1,286047000.5,N
1624985555.8,286047001.0,N
1624985575.7,286046998.9,N
1624985595.5,286047001.0,N
1624985615.4,286046998.6,N
1624985635.2,286046998.4,N
1624985655.0,286046998.5,N
1624985655.9,286046998.5,N
1624985675.8,286046999.0,N
1624985695.6,286046998.9,N
1624985715.5,286046998.3,N
1624985735.3,286046999.3,N
1624985755.1,286046998.2,N
1624985775.9,286047000.8,N
1624985795.7,286047000.7,N
1624985815.6,286046998.5,N
1624985835.4,286047000.7,N
1624985855.2,286047000.4,N
1624985875.1,286046999.8,N
1624985876.0,286046999.8,N
1624985895.8,286046999.8,N
1624985915.6,286047002.6,N
1624985935.5,286047000.1,N
1624985955.3,286047002.6,N
1624985975.2,286046999.9,N
1624985995.9,286046999.9,N
